Location: Neuvy Saint Sepulchre
(46.5953°N, 1.8122°E)
Time: 00:57:21
(UTC+02:00)

ISS - Pass Details

Date: 22 March 2019
Orbit: 408 x 410 km, 51.6° (Epoch: 23 April)

Event Time Altitude Azimuth Distance (km) Brightness Sun altitude
Rises 21:05:12 0° 238° (WSW) 2,327 0.5 -20.4°
Reaches altitude 10° 21:07:17 10° 237° (WSW) 1,468 -0.6 -20.7°
Enters shadow 21:09:43 46° 228° (SW) 558 -3.1 -21.1°
